Weather History for Pensacola, FL

Change the Weather History Date:

Monday, November 5, 2012

  Actual Average Record
Temperature  
Mean Temperature 63 °F 64 °F  
Max Temperature 72 °F 73 °F 83 °F (1987)
Min Temperature 54 °F 54 °F 30 °F (1991)
Degree Days  
Heating Degree Days 2 4  
Month to date heating degree days 2 16  
Since 1 July heating degree days 31 54  
Cooling Degree Days 0 2  
Month to date cooling degree days 22 13  
Year to date cooling degree days 3026 2563  
Growing Degree Days 14 (Base 50)    
Moisture  
Dew Point 47 °F    
Average Humidity 57    
Maximum Humidity 86    
Minimum Humidity 27    
Precipitation  
Precipitation 0.01 in 0.16 in 3.06 in (1940)
Month to date precipitation 0.01 0.82  
Year to date precipitation 63.32 56.81  
Snow  
Snow 0.00 in 0.00 in 0.00 in (2002)
Month to date snowfall 0.0 0.0  
Since 1 July snowfall 0.0 0.0  
Snow Depth 0.00 in    
Sea Level Pressure  
Sea Level Pressure 30.00 in    
Wind  
Wind Speed 4 mph (NE)    
Max Wind Speed 17 mph    
Max Gust Speed 24 mph    
Visibility 10 miles    
Events Rain    
T = Trace of Precipitation, MM = Missing Value Source: NWS Daily Summary

Daily Weather History Graph

Daily Weather History Graph

Search for Another Location

Airport:

Trip Planner

Search our weather history database for the weather conditions in past years. The results will help you decide how hot, cold, wet, or windy it might be!

Date:

Astronomy

Nov. 05, 2012 Rise Set
Actual Time 6:06 AM CST 4:57 PM CST
Civil Twilight 5:41 AM CST 5:22 PM CST
Nautical Twilight 5:13 AM CST 5:51 PM CST
Astronomical Twilight 4:44 AM CST 6:19 PM CST
Moon 10:33 PM CST (11/5) 11:25 AM CST (11/5)
Length of Visible Light 11h 40m
Length of Day
10h 50m
Waning Gibbous, 62% of the Moon is Illuminated
Nov 5
Waning Gibbous
Nov 6
Last Quarter
Nov 13
New
Nov 20
First Quarter
Nov 28
Full

Hourly Weather History & Observations

Time (CST) Temp. Dew Point Humidity Pressure Visibility Wind Dir Wind Speed Gust Speed Precip Events Conditions
12:53 AM 60.1 °F 53.1 °F 78% 30.05 in 10.0 mi North 5.8 mph - N/A   Clear
1:53 AM 59.0 °F 52.0 °F 78% 30.06 in 10.0 mi North 4.6 mph - N/A   Clear
2:53 AM 57.9 °F 50.0 °F 75% 30.06 in 10.0 mi North 4.6 mph - N/A   Clear
3:53 AM 57.0 °F 50.0 °F 77% 30.06 in 10.0 mi North 3.5 mph - N/A   Clear
4:53 AM 55.9 °F 48.9 °F 77% 30.06 in 10.0 mi NNE 6.9 mph - N/A   Clear
5:53 AM 55.0 °F 48.0 °F 77% 30.07 in 10.0 mi NNE 6.9 mph - N/A   Clear
6:53 AM 55.9 °F 48.0 °F 75% 30.08 in 10.0 mi NNE 5.8 mph - N/A   Clear
7:53 AM 57.9 °F 46.0 °F 65% 30.09 in 10.0 mi NE 8.1 mph - N/A   Clear
8:53 AM 61.0 °F 46.9 °F 60% 30.08 in 10.0 mi NE 6.9 mph - N/A   Clear
9:53 AM 64.9 °F 45.0 °F 48% 30.08 in 10.0 mi Variable 4.6 mph - N/A   Partly Cloudy
10:53 AM 69.1 °F 42.1 °F 38% 30.06 in 10.0 mi NE 4.6 mph - N/A   Clear
11:53 AM 70.0 °F 42.1 °F 36% 30.02 in 10.0 mi ESE 5.8 mph - N/A   Clear
12:53 PM 72.0 °F 39.9 °F 31% 30.00 in 10.0 mi Variable 4.6 mph - N/A   Clear
1:53 PM 71.1 °F 37.9 °F 30% 29.98 in 10.0 mi South 5.8 mph - N/A   Overcast
2:53 PM 71.1 °F 35.1 °F 27% 29.98 in 10.0 mi South 4.6 mph - N/A   Partly Cloudy
3:53 PM 68.0 °F 37.0 °F 32% 29.98 in 10.0 mi Calm Calm - N/A   Mostly Cloudy
4:53 PM 66.9 °F 39.0 °F 36% 29.99 in 10.0 mi South 3.5 mph - N/A   Overcast
5:53 PM 63.0 °F 46.9 °F 56% 29.97 in 10.0 mi NE 4.6 mph - 0.00 in Rain Light Rain
6:53 PM 64.0 °F 46.9 °F 54% 29.96 in 10.0 mi Calm Calm - 0.00 in   Mostly Cloudy
7:53 PM 61.0 °F 50.0 °F 67% 29.96 in 10.0 mi Calm Calm - N/A   Mostly Cloudy
8:53 PM 57.9 °F 54.0 °F 87% 29.96 in 10.0 mi Calm Calm - 0.01 in   Mostly Cloudy
9:53 PM 62.1 °F 55.0 °F 78% 29.91 in 10.0 mi SSE 5.8 mph - N/A   Overcast
10:53 PM 64.0 °F 55.0 °F 73% 29.89 in 10.0 mi Calm Calm - N/A   Mostly Cloudy
11:23 PM 60.8 °F 51.8 °F 72% 29.89 in 10.0 mi NNE 8.1 mph 23.0 mph N/A   Overcast
11:51 PM 59.0 °F 51.8 °F 77% 29.89 in 10.0 mi North 9.2 mph 20.7 mph N/A   Overcast
11:53 PM 59.0 °F 51.1 °F 75% 29.89 in 10.0 mi NNE 8.1 mph 20.7 mph N/A   Overcast